Montreal Mirabel, Ontario

12:53 AM EDT on March 23, 2017 (GMT -0400)
Montreal International (Mirabel)

Weather History for CYMX - November, 2013

Change the Weather History Date:

Sunday, November 17, 2013

  Actual Average Record
Temperature  
Mean Temperature 42 °F -  
Max Temperature 53 °F 37 °F 60 °F (2006)
Min Temperature 32 °F 25 °F 17 °F (1996)
Degree Days  
Heating Degree Days 22    
Moisture  
Dew Point 38 °F    
Average Humidity 86    
Maximum Humidity 100    
Minimum Humidity 70    
Precipitation  
Precipitation 0.00 in - - ()
Sea Level Pressure  
Sea Level Pressure 29.96 in    
Wind  
Wind Speed 6 mph ()    
Max Wind Speed 10 mph    
Max Gust Speed 18 mph    
Visibility 10.5 miles    
Events Rain    
Averages and records for this station are not official NWS values.
T = Trace of Precipitation, MM = Missing Value Source: Averaged Metar Reports

Daily Weather History Graph

Daily Weather History Graph

Search for Another Location

Airport or City:

Trip Planner

Search our weather history database for the weather conditions in past years. The results will help you decide how hot, cold, wet, or windy it might be!

Date:

Astronomy

Nov. 17, 2013 Rise Set
Actual Time 6:58 AM EST 4:23 PM EST
Civil Twilight 6:26 AM EST 4:55 PM EST
Nautical Twilight 5:50 AM EST 5:31 PM EST
Astronomical Twilight 5:14 AM EST 6:06 PM EST
Moon 4:38 PM EST (11/17) 6:49 AM EST (11/17)
Length of Visible Light 10h 29m
Length of Day
9h 24m
Full, 100% of the Moon is Illuminated
Nov 17
Full
Nov 25
Last Quarter
Dec 2
New
Dec 9
First Quarter
Dec 17
Full

Hourly Weather History & Observations

Time (EST) Temp. Windchill Dew Point Humidity Pressure Visibility Wind Dir Wind Speed Gust Speed Precip Events Conditions
12:00 AM 33.8 °F 29.6 °F 28.4 °F 81% 30.22 in 25.0 mi NE 4.6 mph - N/A   Partly Cloudy
1:00 AM 32.0 °F 27.5 °F 28.4 °F 87% 30.20 in 25.0 mi NE 4.6 mph - N/A   Partly Cloudy
2:00 AM 32.0 °F 27.5 °F 26.6 °F 80% 30.18 in 25.0 mi NE 4.6 mph - N/A   Partly Cloudy
3:00 AM 32.0 °F 24.2 °F 26.6 °F 80% 30.16 in 25.0 mi NNE 9.2 mph - N/A   Partly Cloudy
4:00 AM 33.8 °F 27.7 °F 28.4 °F 81% 30.14 in 25.0 mi NE 6.9 mph - N/A   Scattered Clouds
5:00 AM 33.8 °F 28.6 °F 28.4 °F 81% 30.12 in 25.0 mi NE 5.8 mph - N/A   Mostly Cloudy
6:00 AM 33.8 °F 27.0 °F 28.4 °F 81% 30.10 in 25.0 mi ENE 8.1 mph - N/A   Mostly Cloudy
7:00 AM 33.8 °F 28.6 °F 28.4 °F 81% 30.09 in 15.0 mi NNE 5.8 mph - N/A   Scattered Clouds
8:00 AM 33.8 °F 29.6 °F 28.4 °F 81% 30.08 in 25.0 mi NNE 4.6 mph - N/A   Mostly Cloudy
9:00 AM 37.4 °F 32.8 °F 30.2 °F 75% 30.05 in 25.0 mi NE 5.8 mph - N/A   Mostly Cloudy
10:00 AM 41.0 °F 38.0 °F 32.0 °F 70% 30.06 in 25.0 mi NNE 4.6 mph - N/A   Overcast
11:00 AM 41.0 °F 35.8 °F 32.0 °F 70% 30.04 in 25.0 mi NE 8.1 mph - N/A   Overcast
11:43 AM 42.8 °F 38.0 °F 33.8 °F 70% 30.01 in 25.0 mi NE 8.1 mph - N/A Rain Light Rain Showers
12:00 PM 42.8 °F 38.6 °F 35.6 °F 76% 30.02 in 20.0 mi NE 6.9 mph - N/A Rain Light Rain Showers
1:00 PM 44.6 °F 40.2 °F 37.4 °F 76% 29.98 in 15.0 mi NE 8.1 mph - N/A Rain Light Rain Showers
2:00 PM 44.6 °F 42.2 °F 39.2 °F 81% 29.95 in 5.0 mi NE 4.6 mph - N/A Rain Light Rain Showers
3:00 PM 42.8 °F 39.3 °F 41.0 °F 93% 29.94 in 2.5 mi NE 5.8 mph - N/A Rain Light Rain Showers
4:00 PM 42.8 °F 39.3 °F 42.8 °F 100% 29.90 in 2.0 mi NE 5.8 mph - N/A Rain Light Rain Showers
5:00 PM 44.6 °F 42.2 °F 44.6 °F 100% 29.87 in 1.5 mi NE 4.6 mph - N/A Rain Light Rain Showers
5:38 PM 46.4 °F 45.2 °F 46.4 °F 100% 29.85 in 10.0 mi East 3.5 mph - N/A   Overcast
6:00 PM 50.0 °F - 50.0 °F 100% 29.84 in 10.0 mi SE 6.9 mph - N/A   Overcast
7:00 PM 51.8 °F - 50.0 °F 94% 29.80 in 10.0 mi SE 9.2 mph - N/A   Overcast
7:39 PM 51.8 °F - 50.0 °F 94% 29.77 in 15.0 mi SE 9.2 mph - N/A   Overcast
8:00 PM 51.8 °F - 50.0 °F 94% 29.75 in 15.0 mi SE 10.4 mph - N/A   Overcast
9:00 PM 51.8 °F - 50.0 °F 94% 29.70 in 25.0 mi ESE 10.4 mph - N/A   Overcast
9:15 PM 51.8 °F - 50.0 °F 94% 29.69 in 25.0 mi SE 8.1 mph - N/A   Light Drizzle
10:00 PM 53.6 °F - 50.0 °F 88% 29.65 in 25.0 mi ESE 9.2 mph - N/A   Overcast
11:00 PM 53.6 °F - 51.8 °F 94% 29.59 in 15.0 mi SE 10.4 mph 18.4 mph N/A Rain Light Rain Showers